Date String (YYYY-MM-DD hh:mm:ss) UTC,Instrument flags,absolute air pressure of the measurement (hPa),sample flow rate (lpm),inlet stack bypass flow (lpm),air temperature of the measurement (°C),ambient temperature measured by the external sensor (°C),aerosol sample conditioner tube jacket temperature (°C),OPC LED temperature (°C),internal box temperature (°C),relative humidity of the measurement (%),span deviation,mass concentration of particles derived from Lorenz-Mie calculation of OPC scattering (μg/m³),mass concentration of particles derived from Lorenz-Mie calculation of OPC scattering (μg/m³),mass concentration of particles derived from Lorenz-Mie calculation of OPC scattering (μg/m³)
DateTimeUTC,F1_M11,P_M11,Q1_M11,Q2_M11,T1_M11,T2_M11,T3_M11,T4_M11,T5_M11,U1_M11,ZSPAN_M11,X0_M11,X2_M11,X1_M11
2023-07-28 21:00:00,SystemResetWarning,0835.5,5.00,000.00,030.5,027.1,000.0,038.1,030.8,34.0,0000.8,0019.68,0006.45,0005.07
2023-07-28 21:01:00,SystemResetWarning,0835.5,4.98,000.00,030.5,026.4,000.0,038.0,030.8,34.6,0001.3,0019.60,0006.43,0005.08
2023-07-28 21:02:00,SystemResetWarning,0835.5,5.00,000.00,030.5,025.2,000.0,037.9,030.6,34.0,0001.8,0019.47,0006.56,0005.12
2023-07-28 21:03:00,SystemResetWarning,0835.5,5.01,000.00,030.4,024.9,000.0,037.9,030.5,34.7,0002.5,0020.15,0006.65,0005.19
2023-07-28 21:04:00,SystemResetWarning,0835.5,4.99,000.00,030.3,025.1,000.0,038.0,030.3,36.1,0002.7,0019.11,0006.65,0005.21
2023-07-28 21:05:00,SystemResetWarning,0835.5,5.03,000.00,030.5,025.6,000.0,038.0,030.5,35.5,0002.8,0019.13,0006.79,0005.38
2023-07-28 21:06:00,SystemResetWarning,0835.6,4.96,000.00,030.7,026.0,000.0,038.1,030.7,33.9,0003.1,0020.55,0007.54,0006.08
2023-07-28 21:07:00,SystemResetWarning,0835.6,5.01,000.00,030.8,026.5,000.0,038.2,030.8,32.9,0003.1,0021.47,0008.46,0006.96
2023-07-28 21:08:00,SystemResetWarning,0835.5,5.01,000.00,030.9,026.9,000.0,038.2,030.9,31.6,0002.8,0022.29,0008.85,0007.32
2023-07-28 21:09:00,SystemResetWarning,0835.5,4.99,000.00,031.0,027.3,000.0,038.3,031.0,31.4,0002.4,0023.33,0009.06,0007.50
2023-07-28 21:10:00,SystemResetWarning,0835.5,4.99,000.00,031.0,027.3,000.0,038.4,031.0,32.0,0002.5,0022.14,0009.25,0007.65
2023-07-28 21:11:00,SystemResetWarning,0835.5,5.00,000.00,031.0,026.1,000.0,038.3,030.9,31.9,0002.6,0022.39,0009.38,0007.79
2023-07-28 21:12:00,SystemResetWarning,0835.5,5.00,000.00,031.0,025.1,000.0,038.3,030.7,32.2,0002.5,0023.23,0009.64,0007.94
2023-07-28 21:13:00,SystemResetWarning,0835.6,5.00,000.00,030.9,025.1,000.0,038.3,030.6,32.4,0002.4,0023.58,0009.85,0008.08
2023-07-28 21:14:00,SystemResetWarning,0835.5,5.01,000.00,030.7,025.4,000.0,038.3,030.5,32.5,0002.6,0022.76,0009.92,0008.14
2023-07-28 21:15:00,SystemResetWarning,0835.5,4.99,000.00,030.7,025.8,000.0,038.4,030.5,32.4,0002.6,0022.80,0010.06,0008.22
2023-07-28 21:16:00,SystemResetWarning,0835.5,4.99,000.00,030.6,026.3,000.0,038.4,030.7,32.4,0002.7,0023.46,0010.08,0008.21
2023-07-28 21:17:00,SystemResetWarning,0835.5,5.00,000.00,030.6,026.7,000.0,038.5,030.8,32.2,0002.8,0022.24,0009.56,0007.71
2023-07-28 21:18:00,SystemResetWarning,0835.5,5.00,000.00,030.6,027.1,000.0,038.5,030.9,32.3,0002.9,0020.93,0008.66,0006.87
2023-07-28 21:19:00,SystemResetWarning,0835.5,4.99,000.00,030.6,026.6,000.0,038.4,030.9,32.5,0003.2,0020.25,0008.27,0006.45
2023-07-28 21:20:00,SystemResetWarning,0835.5,5.00,000.00,030.6,025.4,000.0,038.3,030.7,31.3,0003.5,0021.15,0008.19,0006.33
2023-07-28 21:21:00,SystemResetWarning,0835.5,5.01,000.00,030.5,025.0,000.0,038.2,030.6,32.1,0003.8,0022.37,0008.13,0006.21
2023-07-28 21:22:00,SystemResetWarning,0835.5,5.01,000.00,030.4,025.2,000.0,038.2,030.5,32.6,0004.1,0021.77,0008.01,0006.07
2023-07-28 21:23:00,SystemResetWarning,0835.4,5.00,000.00,030.2,025.6,000.0,038.2,030.4,33.5,0004.3,0020.52,0007.78,0005.93
2023-07-28 21:24:00,SystemResetWarning,0835.4,4.99,000.00,030.2,026.0,000.0,038.3,030.5,34.5,0004.2,0020.52,0007.55,0005.77
2023-07-28 21:25:00,SystemResetWarning,0835.3,5.00,000.00,030.2,026.5,000.0,038.3,030.7,35.9,0002.5,0020.66,0007.42,0005.62
2023-07-28 21:26:00,SystemResetWarning,0835.3,5.03,000.00,030.5,026.9,000.0,038.3,030.9,34.9,0000.0,0021.21,0007.34,0005.48
2023-07-28 21:27:00,SystemResetWarning,0835.4,4.96,000.00,030.7,027.3,000.0,038.3,031.1,33.8,0000.0,0021.06,0007.19,0005.36
2023-07-28 21:28:00,SystemResetWarning,0835.3,5.02,000.00,030.8,026.9,000.0,038.3,031.1,32.8,0000.0,0021.51,0007.13,0005.24
2023-07-28 21:29:00,SystemResetWarning,0835.3,4.99,000.00,030.9,025.5,000.0,038.2,030.9,32.2,0000.0,0021.74,0007.11,0005.18
2023-07-28 21:30:00,SystemResetWarning,0835.3,4.98,000.00,030.9,025.0,000.0,038.1,030.8,33.2,0000.0,0021.79,0007.03,0005.14
2023-07-28 21:31:00,SystemResetWarning,0835.2,5.01,000.00,030.8,025.2,000.0,038.2,030.5,33.6,0000.0,0020.27,0006.95,0005.11
2023-07-28 21:32:00,SystemResetWarning,0835.3,5.01,000.00,030.7,025.5,000.0,038.3,030.5,33.9,0000.0,0018.16,0006.81,0005.08
2023-07-28 21:33:00,SystemResetWarning,0835.3,4.99,000.00,030.6,026.0,000.0,038.3,030.6,34.6,0000.0,0018.56,0006.80,0005.06
2023-07-28 21:34:00,SystemResetWarning,0835.3,5.00,000.00,030.6,026.5,000.0,038.4,030.7,35.2,0000.0,0018.86,0006.82,0005.03
2023-07-28 21:35:00,SystemResetWarning,0835.3,5.01,000.00,030.8,026.9,000.0,038.4,030.9,34.3,0000.0,0018.45,0006.85,0004.99
2023-07-28 21:36:00,SystemResetWarning,0835.3,4.98,000.00,030.9,027.3,000.0,038.5,031.1,34.0,0000.0,0018.13,0006.83,0004.98
2023-07-28 21:37:00,SystemResetWarning,0835.2,5.02,000.00,031.0,026.9,000.0,038.5,031.0,33.4,0000.0,0017.09,0006.75,0004.96
2023-07-28 21:38:00,SystemResetWarning,0835.2,4.99,000.00,031.0,025.5,000.0,038.4,030.9,33.6,0000.0,0017.43,0006.78,0004.94
2023-07-28 21:39:00,SystemResetWarning,0835.1,4.98,000.00,031.0,025.0,000.0,038.3,030.8,34.4,0000.0,0019.08,0006.74,0004.93
2023-07-28 21:40:00,SystemResetWarning,0835.1,5.01,000.00,030.9,025.2,000.0,038.3,030.6,34.6,0000.0,0019.30,0006.68,0004.91
2023-07-28 21:41:00,SystemResetWarning,0835.1,5.01,000.00,030.8,025.5,000.0,038.4,030.6,34.9,0000.0,0020.31,0006.71,0004.91
2023-07-28 21:42:00,SystemResetWarning,0835.1,5.00,000.00,030.7,026.0,000.0,038.5,030.7,34.3,0000.0,0021.70,0006.72,0004.91
2023-07-28 21:43:00,SystemResetWarning,0835.2,5.00,000.00,030.7,026.4,000.0,038.5,030.8,33.7,0000.0,0021.73,0006.72,0004.90
2023-07-28 21:44:00,SystemResetWarning,0835.2,5.00,000.00,030.7,026.9,000.0,038.5,030.9,33.4,0000.0,0021.51,0006.73,0004.91
2023-07-28 21:45:00,SystemResetWarning,0835.3,5.00,000.00,030.7,027.2,000.0,038.6,031.0,33.5,0000.0,0021.44,0006.72,0004.92
2023-07-28 21:46:00,SystemResetWarning,0835.2,4.99,000.00,030.7,027.0,000.0,038.5,031.0,33.3,0000.0,0021.48,0006.71,0004.93
2023-07-28 21:47:00,SystemResetWarning,0835.2,4.99,000.00,030.6,025.7,000.0,038.4,030.8,33.9,0000.0,0022.02,0006.72,0004.94
2023-07-28 21:48:00,SystemResetWarning,0835.3,5.02,000.00,030.6,025.1,000.0,038.3,030.7,34.0,0000.0,0022.21,0006.74,0004.95
2023-07-28 21:49:00,SystemResetWarning,0835.3,5.00,000.00,030.4,025.2,000.0,038.3,030.4,34.2,0000.0,0021.97,0006.78,0004.97
2023-07-28 21:50:00,SystemResetWarning,0835.3,5.00,000.00,030.3,025.5,000.0,038.3,030.4,34.4,0000.0,0019.96,0006.82,0004.97
2023-07-28 21:51:00,SystemResetWarning,0835.2,4.98,000.00,030.3,026.0,000.0,038.3,030.5,35.4,0000.0,0020.32,0006.90,0004.98
2023-07-28 21:52:00,SystemResetWarning,0835.3,5.04,000.00,030.4,026.4,000.0,038.3,030.7,34.8,0000.0,0020.47,0006.90,0004.99
2023-07-28 21:53:00,SystemResetWarning,0835.4,4.97,000.00,030.5,026.8,000.0,038.4,030.9,34.3,0000.0,0018.70,0006.84,0004.98
2023-07-28 21:54:00,SystemResetWarning,0835.5,5.00,000.00,030.6,027.2,000.0,038.4,031.0,34.4,0000.0,0018.56,0006.95,0005.00
2023-07-28 21:55:00,SystemResetWarning,0835.5,5.01,000.00,030.6,027.1,000.0,038.4,031.0,34.6,0000.0,0019.35,0006.99,0005.00
2023-07-28 21:56:00,SystemResetWarning,0835.5,4.98,000.00,030.6,025.8,000.0,038.3,030.9,35.3,0000.0,0019.78,0006.98,0005.00
2023-07-28 21:57:00,SystemResetWarning,0835.5,5.03,000.00,030.7,025.1,000.0,038.2,030.8,35.1,0000.0,0020.13,0006.97,0005.00
2023-07-28 21:58:00,SystemResetWarning,0835.6,4.98,000.00,030.9,025.2,000.0,038.2,030.8,34.3,0000.0,0020.73,0007.06,0005.01
2023-07-28 21:59:00,SystemResetWarning,0835.6,5.00,000.00,030.9,025.5,000.0,038.3,030.7,33.9,0000.0,0020.48,0007.08,0005.02
